This is the latest recevied weather packets stored in our database for station/object KC1OEK-13. If no packets are shown the sender has not sent any weather packets the latest 10 day(s).
| Time | Temp. | Humidity | Pressure | Rain* | Wind** | Luminosity | Snow |
|---|---|---|---|---|---|---|---|
| 1777828878 | 10° C | 42% | 1011.1 hPa | 0 mm | - | 258 W/m² | - |
| 1777828574 | 10.56° C | 42% | 1011.1 hPa | 0 mm | - | 235 W/m² | - |
| 1777828272 | 11.11° C | 41% | 1011.3 hPa | 0 mm | - | 227 W/m² | - |
| 1777827969 | 10° C | 43% | 1011.1 hPa | 0 mm | - | 234 W/m² | - |
| 1777827665 | 11.11° C | 42% | 1011.3 hPa | 0 mm | - | 208 W/m² | - |
| 1777827363 | 11.11° C | 41% | 1011.2 hPa | 0 mm | - | 259 W/m² | - |
| 1777827058 | 10.56° C | 43% | 1011.4 hPa | 0 mm | - | 987 W/m² | - |
| 1777826755 | 10° C | 46% | 1011.4 hPa | 0 mm | - | 580 W/m² | - |
| 1777826453 | 10° C | 42% | 1011.5 hPa | 0 mm | - | 603 W/m² | - |
| 1777826149 | 10° C | 45% | 1011.6 hPa | 0 mm | - | 564 W/m² | - |
| 1777825847 | 10° C | 44% | 1011.5 hPa | 0 mm | - | 441 W/m² | - |
| 1777825543 | 9.44° C | 44% | 1011.7 hPa | 0 mm | - | 496 W/m² | - |
| 1777825241 | 10° C | 48% | 1011.5 hPa | 0 mm | - | 408 W/m² | - |
| 1777824938 | 9.44° C | 47% | 1011.5 hPa | 0 mm | - | 371 W/m² | - |
| 1777824634 | 9.44° C | 49% | 1011.7 hPa | 0 mm | - | 241 W/m² | - |
| 1777824332 | 8.89° C | 49% | 1011.7 hPa | 0 mm | - | 365 W/m² | - |
| 1777824027 | 9.44° C | 48% | 1011.8 hPa | 0 mm | - | 156 W/m² | - |
| 1777823724 | 10° C | 48% | 1011.5 hPa | 0 mm | - | 253 W/m² | - |
| 1777823421 | 10° C | 49% | 1011.8 hPa | 0 mm | - | 442 W/m² | - |
| 1777823118 | 9.44° C | 50% | 1011.8 hPa | 0 mm | - | 671 W/m² | - |
| 1777822816 | 9.44° C | 50% | 1011.7 hPa | 0 mm | - | 554 W/m² | - |
| 1777822514 | 9.44° C | 51% | 1011.9 hPa | 0 mm | - | 452 W/m² | - |
| 1777822211 | 9.44° C | 54% | 1011.8 hPa | 0 mm | - | 417 W/m² | - |
| 1777821908 | 9.44° C | 54% | 1011.9 hPa | 0 mm | - | 368 W/m² | - |
| 1777821606 | 8.89° C | 55% | 1011.9 hPa | 0 mm | - | 434 W/m² | - |
* Rain latest hour (hover to see other rain measurements)
** Current wind speed in m/s (hover to see current wind gust speed)